When you browse on this site, cookies collect data to enhance your experience and personalize the content and advertising you see.
Visit our Privacy Policy to learn more. By continuing to use the site, you agree to this use of cookies and data.
  • In Switzerland
  • List of Countries
  • For 7 days
  • Water Temperature
  • Satellite Maps
  • Weather Map
  • Weather Widgets
  • user-avatar
    Login

    Hourly Weather Maracay

    Today, 16 July, Tuesday

    Time Temperature Precipitation Wind Pressure Humidity
    00:00 +23°C° 0.4 mm 1 mps 711 mmHg 89%
    01:00 +23°C° 0 mm 1 mps 711 mmHg 88%
    02:00 +23°C° 0.3 mm 1 mps 711 mmHg 89%
    03:00 +21°C° 0.3 mm 0 mps 711 mmHg 89%
    04:00 +21°C° 0.3 mm 0 mps 711 mmHg 89%
    05:00 +21°C° 0.7 mm 0 mps 711 mmHg 88%
    06:00 +22°C° 0.7 mm 0 mps 712 mmHg 87%
    07:00 +23°C° 0.7 mm 0 mps 712 mmHg 86%
    08:00 +26°C° 1.2 mm 1 mps 713 mmHg 83%
    09:00 +27°C° 1.2 mm 1 mps 713 mmHg 79%
    10:00 +28°C° 1.2 mm 1 mps 713 mmHg 75%
    11:00 +29°C° 1.5 mm 1 mps 713 mmHg 74%
    12:00 +29°C° 1.5 mm 1 mps 712 mmHg 72%
    13:00 +30°C° 1.5 mm 1 mps 712 mmHg 71%
    14:00 +29°C° 1.5 mm 1 mps 711 mmHg 74%
    15:00 +29°C° 1.5 mm 2 mps 711 mmHg 78%
    16:00 +28°C° 1.5 mm 2 mps 711 mmHg 81%
    17:00 +27°C° 0.9 mm 2 mps 711 mmHg 83%
    18:00 +26°C° 0.9 mm 2 mps 711 mmHg 86%
    19:00 +24°C° 0.9 mm 2 mps 712 mmHg 88%
    20:00 +24°C° 0.2 mm 1 mps 712 mmHg 89%
    21:00 +24°C° 0.2 mm 1 mps 712 mmHg 90%
    22:00 +24°C° 0.2 mm 1 mps 713 mmHg 90%
    23:00 +23°C° 0.2 mm 1 mps 712 mmHg 91%

    Tomorrow, 17 July, Wednesday

    Time Temperature Precipitation Wind Pressure Humidity
    00:00 +23°C° 0.2 mm 1 mps 712 mmHg 91%
    01:00 +23°C° 0.2 mm 1 mps 712 mmHg 92%
    02:00 +23°C° 0.1 mm 1 mps 711 mmHg 91%
    03:00 +22°C° 0.1 mm 1 mps 711 mmHg 91%
    04:00 +22°C° 0.1 mm 1 mps 711 mmHg 90%
    05:00 +23°C° 0 mm 1 mps 712 mmHg 88%
    06:00 +24°C° 0 mm 1 mps 712 mmHg 87%
    07:00 +24°C° 0 mm 1 mps 713 mmHg 85%
    08:00 +26°C° 0 mm 1 mps 713 mmHg 79%
    09:00 +27°C° 0 mm 1 mps 713 mmHg 72%
    10:00 +28°C° 0 mm 2 mps 713 mmHg 65%
    11:00 +29°C° 0 mm 2 mps 713 mmHg 64%
    12:00 +29°C° 0 mm 2 mps 712 mmHg 62%
    13:00 +30°C° 0 mm 2 mps 712 mmHg 61%
    14:00 +29°C° 0.6 mm 2 mps 712 mmHg 66%
    15:00 +29°C° 0.6 mm 1 mps 711 mmHg 71%
    16:00 +28°C° 0.6 mm 1 mps 711 mmHg 77%
    17:00 +27°C° 0.4 mm 1 mps 711 mmHg 81%
    18:00 +26°C° 0.4 mm 1 mps 711 mmHg 84%
    19:00 +24°C° 0.4 mm 1 mps 712 mmHg 88%
    20:00 +24°C° 0.1 mm 1 mps 712 mmHg 89%
    21:00 +24°C° 0.1 mm 1 mps 712 mmHg 90%
    22:00 +23°C° 0.1 mm 1 mps 712 mmHg 91%
    23:00 +23°C° 0 mm 1 mps 712 mmHg 91%

    Day after tomorrow, 18 July, Thursday

    Time Temperature Precipitation Wind Pressure Humidity
    00:00 +23°C° 0 mm 1 mps 712 mmHg 91%
    01:00 +23°C° 0 mm 1 mps 712 mmHg 91%
    02:00 +23°C° 0 mm 1 mps 711 mmHg 90%
    03:00 +23°C° 0 mm 1 mps 711 mmHg 90%
    04:00 +23°C° 0 mm 1 mps 711 mmHg 90%
    05:00 +23°C° 0 mm 1 mps 712 mmHg 89%
    06:00 +24°C° 0 mm 1 mps 712 mmHg 87%
    07:00 +25°C° 0 mm 1 mps 713 mmHg 85%
    08:00 +26°C° 0.1 mm 1 mps 713 mmHg 80%
    09:00 +27°C° 0.1 mm 1 mps 713 mmHg 75%
    10:00 +29°C° 0.1 mm 2 mps 714 mmHg 70%
    11:00 +28°C° 1 mm 2 mps 713 mmHg 73%
    12:00 +28°C° 1 mm 2 mps 712 mmHg 77%
    13:00 +27°C° 1 mm 2 mps 712 mmHg 80%
    14:00 +27°C° 0.1 mm 2 mps 711 mmHg 79%
    15:00 +27°C° 0.1 mm 2 mps 711 mmHg 78%
    16:00 +27°C° 0.1 mm 1 mps 711 mmHg 77%
    17:00 +26°C° 0.1 mm 1 mps 711 mmHg 80%
    18:00 +26°C° 0.1 mm 1 mps 711 mmHg 84%
    19:00 +25°C° 0.1 mm 1 mps 712 mmHg 88%
    20:00 +24°C° 0 mm 1 mps 712 mmHg 88%
    21:00 +24°C° 0 mm 1 mps 712 mmHg 87%
    22:00 +24°C° 0 mm 1 mps 712 mmHg 87%
    23:00 +24°C° 0 mm 1 mps 712 mmHg 87%

    19 July, Friday

    Time Temperature Precipitation Wind Pressure Humidity
    00:00 +23°C° 0 mm 1 mps 712 mmHg 87%
    01:00 +23°C° 0 mm 1 mps 712 mmHg 87%
    02:00 +23°C° 0 mm 1 mps 711 mmHg 87%
    03:00 +23°C° 0 mm 1 mps 711 mmHg 87%
    04:00 +23°C° 0 mm 1 mps 711 mmHg 87%
    05:00 +23°C° 0 mm 1 mps 712 mmHg 85%
    06:00 +24°C° 0 mm 1 mps 712 mmHg 84%
    07:00 +25°C° 0 mm 1 mps 713 mmHg 82%
    08:00 +27°C° 0 mm 1 mps 713 mmHg 77%
    09:00 +28°C° 0 mm 2 mps 713 mmHg 72%
    10:00 +29°C° 0 mm 2 mps 713 mmHg 66%
    11:00 +30°C° 0.1 mm 3 mps 713 mmHg 64%
    12:00 +30°C° 0.1 mm 3 mps 712 mmHg 62%
    13:00 +31°C° 0.1 mm 3 mps 712 mmHg 60%
    14:00 +30°C° 0.3 mm 3 mps 711 mmHg 64%
    15:00 +30°C° 0.3 mm 3 mps 711 mmHg 68%
    16:00 +29°C° 0.3 mm 2 mps 710 mmHg 72%
    17:00 +28°C° 0.1 mm 2 mps 711 mmHg 77%
    18:00 +26°C° 0.1 mm 2 mps 711 mmHg 82%
    19:00 +25°C° 0.1 mm 1 mps 711 mmHg 87%
    20:00 +24°C° 0 mm 1 mps 712 mmHg 88%
    21:00 +24°C° 0 mm 1 mps 712 mmHg 89%
    22:00 +24°C° 0 mm 1 mps 712 mmHg 89%
    23:00 +23°C° 0 mm 1 mps 712 mmHg 89%

    20 July, Saturday

    Time Temperature Precipitation Wind Pressure Humidity
    00:00 +23°C° 0 mm 1 mps 711 mmHg 89%
    01:00 +23°C° 0 mm 1 mps 711 mmHg 89%
    02:00 +23°C° 0 mm 1 mps 711 mmHg 88%
    03:00 +23°C° 0 mm 1 mps 711 mmHg 88%
    04:00 +23°C° 0 mm 1 mps 711 mmHg 88%
    05:00 +23°C° 0 mm 1 mps 711 mmHg 86%
    06:00 +24°C° 0 mm 1 mps 712 mmHg 84%
    07:00 +25°C° 0 mm 1 mps 712 mmHg 83%
    08:00 +26°C° 0 mm 1 mps 712 mmHg 77%
    09:00 +28°C° 0 mm 1 mps 712 mmHg 70%
    10:00 +29°C° 0 mm 2 mps 713 mmHg 64%
    11:00 +30°C° 0 mm 2 mps 712 mmHg 63%
    12:00 +30°C° 0 mm 2 mps 712 mmHg 61%
    13:00 +31°C° 0 mm 3 mps 711 mmHg 60%
    14:00 +30°C° 0.2 mm 2 mps 711 mmHg 64%
    15:00 +30°C° 0.2 mm 2 mps 710 mmHg 68%
    16:00 +29°C° 0.2 mm 2 mps 710 mmHg 72%
    17:00 +28°C° 0.2 mm 2 mps 710 mmHg 77%
    18:00 +26°C° 0.2 mm 1 mps 710 mmHg 82%
    19:00 +25°C° 0.2 mm 1 mps 710 mmHg 87%
    20:00 +24°C° 0 mm 1 mps 711 mmHg 88%
    21:00 +24°C° 0 mm 1 mps 711 mmHg 89%
    22:00 +23°C° 0 mm 1 mps 711 mmHg 89%
    23:00 +23°C° 0 mm 1 mps 711 mmHg 90%

    21 July, Sunday

    Time Temperature Precipitation Wind Pressure Humidity
    00:00 +23°C° 0 mm 1 mps 710 mmHg 90%
    01:00 +23°C° 0 mm 1 mps 710 mmHg 90%
    02:00 +22°C° 0 mm 1 mps 710 mmHg 90%
    03:00 +22°C° 0 mm 1 mps 710 mmHg 90%
    04:00 +22°C° 0 mm 1 mps 710 mmHg 89%
    05:00 +23°C° 0 mm 1 mps 710 mmHg 87%
    06:00 +24°C° 0 mm 1 mps 711 mmHg 85%
    07:00 +25°C° 0 mm 1 mps 711 mmHg 83%
    08:00 +26°C° 0 mm 1 mps 712 mmHg 75%
    09:00 +28°C° 0 mm 1 mps 712 mmHg 66%
    10:00 +29°C° 0 mm 2 mps 712 mmHg 58%
    11:00 +30°C° 0 mm 2 mps 712 mmHg 56%
    12:00 +30°C° 0 mm 3 mps 711 mmHg 55%
    13:00 +31°C° 0 mm 3 mps 711 mmHg 53%
    14:00 +30°C° 0 mm 3 mps 710 mmHg 56%
    15:00 +30°C° 0 mm 2 mps 710 mmHg 59%
    16:00 +29°C° 0 mm 2 mps 709 mmHg 63%
    17:00 +28°C° 0 mm 1 mps 709 mmHg 70%
    18:00 +26°C° 0 mm 1 mps 710 mmHg 78%
    19:00 +24°C° 0 mm 1 mps 710 mmHg 86%
    20:00 +24°C° 0 mm 1 mps 711 mmHg 86%
    21:00 +23°C° 0 mm 1 mps 711 mmHg 87%
    22:00 +23°C° 0 mm 1 mps 711 mmHg 88%
    23:00 +23°C° 0 mm 1 mps 711 mmHg 88%
    Show more